This is the latest recevied weather packets stored in our database for station/object N3WPH. If no packets are shown the sender has not sent any weather packets the latest 10 day(s).
| Time | Temp. | Humidity | Pressure | Rain* | Wind** | Luminosity | Snow |
|---|---|---|---|---|---|---|---|
| 1777767841 | 8.33° C | 55% | 1012.4 hPa | 0 mm | - | 0 W/m² | - |
| 1777767536 | 8.33° C | 53% | 1012.4 hPa | 0 mm | - | 0 W/m² | - |
| 1777767233 | 8.89° C | 54% | 1012.2 hPa | 0 mm | - | 0 W/m² | - |
| 1777766931 | 8.89° C | 54% | 1012.5 hPa | 0 mm | - | 1 W/m² | - |
| 1777766628 | 8.89° C | 53% | 1012.2 hPa | 0 mm | - | 1 W/m² | - |
| 1777766325 | 8.89° C | 54% | 1012.1 hPa | 0 mm | - | 1 W/m² | - |
| 1777766022 | 8.89° C | 54% | 1012.1 hPa | 0 mm | - | 2 W/m² | - |
| 1777765718 | 8.89° C | 53% | 1011.9 hPa | 0 mm | - | 4 W/m² | - |
| 1777765415 | 8.89° C | 54% | 1012.1 hPa | 0 mm | - | 6 W/m² | - |
| 1777765112 | 8.89° C | 55% | 1012.1 hPa | 0 mm | - | 9 W/m² | - |
| 1777764808 | 8.89° C | 53% | 1012.2 hPa | 0 mm | - | 13 W/m² | - |
| 1777764506 | 8.89° C | 53% | 1012.1 hPa | 0 mm | - | 17 W/m² | - |
| 1777764202 | 9.44° C | 52% | 1012.1 hPa | 0 mm | - | 20 W/m² | - |
| 1777763898 | 9.44° C | 51% | 1012.1 hPa | 0 mm | - | 23 W/m² | - |
| 1777763596 | 9.44° C | 51% | 1011.9 hPa | 0 mm | - | 23 W/m² | - |
| 1777763294 | 9.44° C | 51% | 1012.3 hPa | 0 mm | - | 24 W/m² | - |
| 1777762992 | 9.44° C | 50% | 1011.9 hPa | 0 mm | - | 25 W/m² | - |
| 1777762689 | 9.44° C | 52% | 1011.9 hPa | 0 mm | - | 28 W/m² | - |
| 1777762385 | 10° C | 51% | 1011.8 hPa | 0 mm | - | 27 W/m² | - |
| 1777762082 | 10° C | 49% | 1011.9 hPa | 0 mm | - | 27 W/m² | - |
| 1777761778 | 10° C | 48% | 1011.8 hPa | 0 mm | - | 34 W/m² | - |
| 1777761476 | 10° C | 50% | 1011.7 hPa | 0 mm | - | 51 W/m² | - |
| 1777761174 | 10° C | 50% | 1011.7 hPa | 0 mm | - | 66 W/m² | - |
| 1777760871 | 10° C | 48% | 1011.7 hPa | 0 mm | - | 69 W/m² | - |
| 1777760568 | 10° C | 49% | 1011.6 hPa | 0 mm | - | 60 W/m² | - |
* Rain latest hour (hover to see other rain measurements)
** Current wind speed in m/s (hover to see current wind gust speed)